Location: Caltech
(34.1382°N, 118.1253°W)
Time: 16:50:20
(UTC-07:00)

NOSS 3-2 (A) - Visible Passes

Search period start: 22 July 2014 00:00
Search period end: 01 August 2014 00:00
Orbit: 945 x 1264 km, 63.4° (Epoch: 16 July)

Date Brightness Start Highest point End Pass type
(mag) Time Alt. Az. Time Alt. Az. Time Alt. Az.
22 Jul 4.6 01:14:28 10° NW 01:19:52 46° WNW 01:19:52 46° WNW visible
22 Jul 5.6 22:39:24 10° N 22:44:46 21° NE 22:48:14 16° ENE visible
23 Jul 4.0 00:29:01 10° NNW 00:35:36 72° NW 00:35:36 72° NW visible
23 Jul 6.0 02:22:42 10° WNW 02:22:57 11° WNW 02:22:57 11° WNW visible
23 Jul 6.0 21:55:09 10° N 21:58:46 14° NE 22:02:27 10° ENE visible
23 Jul 4.1 23:43:47 10° NNW 23:51:11 60° ENE 23:51:23 60° ENE visible
24 Jul 5.5 01:35:39 10° NW 01:38:45 21° WNW 01:38:45 21° WNW visible
24 Jul 4.7 22:58:46 10° NNW 23:05:40 39° NE 23:07:13 36° ENE visible
25 Jul 4.9 00:49:36 10° NW 00:54:35 37° WNW 00:54:35 37° WNW visible
25 Jul 5.3 22:13:57 10° N 22:19:58 26° NE 22:23:06 20° E visible
26 Jul 4.1 00:03:59 10° NW 00:10:29 64° WNW 00:10:29 64° WNW visible
26 Jul 5.7 21:29:25 10° N 21:34:05 17° NE 21:38:54 10° E visible
26 Jul 3.9 23:18:38 10° NNW 23:26:10 76° ENE 23:26:25 75° E visible
27 Jul 5.8 01:11:19 10° WNW 01:13:48 17° W 01:13:48 17° W visible
27 Jul 6.0 20:45:42 10° NNE 20:47:59 11° NNE 20:50:19 10° NE visible
27 Jul 4.4 22:33:31 10° NNW 22:40:43 49° NE 22:42:25 43° E visible
28 Jul 5.1 00:24:51 10° NW 00:29:48 31° W 00:29:48 31° W visible
28 Jul 5.0 21:48:34 10° NNW 21:55:07 32° NE 21:58:27 24° E visible
28 Jul 4.3 23:39:01 10° NW 23:45:50 54° W 23:45:50 54° W visible
29 Jul 5.4 21:03:52 10° N 21:09:21 22° NE 21:14:31 11° E visible
29 Jul 3.8 22:53:33 10° NNW 23:01:06 86° WSW 23:01:55 74° SSE visible
30 Jul 6.0 00:47:28 10° WNW 00:49:19 13° W 00:49:19 13° W visible
30 Jul 5.8 20:19:34 10° N 20:23:22 14° NE 20:27:15 10° ENE visible
30 Jul 4.1 22:08:19 10° NNW 22:15:44 63° ENE 22:18:03 45° ESE visible
31 Jul 5.4 00:00:17 10° WNW 00:05:27 25° W 00:05:27 25° W visible
31 Jul 4.6 21:23:16 10° NNW 21:30:13 41° NE 21:34:14 24° ESE visible
31 Jul 4.6 23:14:10 10° NW 23:21:10 42° WSW 23:21:38 42° WSW visible
